Jordan, MT

9:49 PM MDT on August 30, 2016 (GMT -0600)
Jordan

Weather History for KJDN - November, 2011

Change the Weather History Date:

Tuesday, November 29, 2011

  Actual Average Record
Temperature  
Mean Temperature 34 °F 24 °F  
Max Temperature 51 °F 37 °F 60 °F (1939)
Min Temperature 17 °F 11 °F -31 °F (1905)
Degree Days  
Heating Degree Days 31 41  
Month to date heating degree days 969 1005  
Since 1 July heating degree days 1647 1978  
Cooling Degree Days 0 0  
Month to date cooling degree days 0 0  
Year to date cooling degree days 494 421  
Moisture  
Dew Point 23 °F    
Average Humidity 64    
Maximum Humidity 91    
Minimum Humidity 36    
Precipitation  
Precipitation 0.00 in 0.00 in 0.25 in (1975)
Month to date precipitation 0.27 0.35  
Year to date precipitation 16.20 12.37  
Snow  
Snow 0.00 in - - ()
Month to date snowfall 0.0  
Since 1 July snowfall 0.0  
Since 1 September snowfall 0.0  
Snow Depth 0.00 in    
Sea Level Pressure  
Sea Level Pressure 30.15 in    
Wind  
Wind Speed 2 mph (West)    
Max Wind Speed 8 mph    
Max Gust Speed 9 mph    
T = Trace of Precipitation, MM = Missing Value Source: NWS Daily Summary

Daily Weather History Graph

Daily Weather History Graph

Search for Another Location

Airport or City:

Trip Planner

Search our weather history database for the weather conditions in past years. The results will help you decide how hot, cold, wet, or windy it might be!

Date:

Astronomy

Nov. 29, 2011 Rise Set
Actual Time 7:31 AM MST 4:20 PM MST
Civil Twilight 6:56 AM MST 4:55 PM MST
Nautical Twilight 6:18 AM MST 5:33 PM MST
Astronomical Twilight 5:41 AM MST 6:10 PM MST
Moon 11:12 AM MST (11/29) 9:26 PM MST (11/29)
Length of Visible Light 9h 58m
Length of Day
8h 49m
Waxing Crescent, 25% of the Moon is Illuminated
Nov 29
Waxing Crescent
Dec 2
First Quarter
Dec 10
Full
Dec 17
Last Quarter
Dec 24
New

Hourly Weather History & Observations

Time (MST) Temp. Windchill Dew Point Humidity Pressure Visibility Wind Dir Wind Speed Gust Speed Precip Events Conditions
12:48 AM 23.0 °F - 19.0 °F 85% 30.27 in - Calm Calm - N/A   Unknown
1:48 AM 21.0 °F - 18.0 °F 88% 30.26 in - Calm Calm - N/A   Unknown
2:48 AM 19.9 °F - 17.1 °F 89% 30.25 in - Calm Calm - N/A   Unknown
3:48 AM 19.9 °F - 16.0 °F 85% 30.24 in - Calm Calm - N/A   Unknown
4:48 AM 19.0 °F 12.3 °F 15.1 °F 85% 30.25 in - WNW 4.6 mph - N/A   Unknown
5:48 AM 17.1 °F 11.7 °F 12.9 °F 84% 30.25 in - West 3.5 mph - N/A   Unknown
6:48 AM 19.0 °F 12.3 °F 15.1 °F 85% 30.24 in - WNW 4.6 mph - N/A   Unknown
7:48 AM 21.0 °F 12.4 °F 17.1 °F 85% 30.24 in - WNW 6.9 mph - N/A   Unknown
8:48 AM 25.0 °F - 21.9 °F 88% 30.23 in - Calm Calm - N/A   Unknown
9:48 AM 28.9 °F - 25.0 °F 85% 30.22 in - Calm Calm - N/A   Unknown
10:48 AM 36.0 °F 33.3 °F 28.9 °F 76% 30.20 in - West 3.5 mph - N/A   Unknown
11:48 AM 45.0 °F 42.6 °F 30.0 °F 56% 30.15 in - West 4.6 mph - N/A   Unknown
12:48 PM 48.0 °F - 27.0 °F 44% 30.14 in - Calm Calm - N/A   Unknown
1:48 PM 50.0 °F - 25.0 °F 38% 30.12 in - WSW 6.9 mph - N/A   Unknown
2:48 PM 48.0 °F - 26.1 °F 42% 30.11 in - WSW 4.6 mph - N/A   Unknown
3:48 PM 46.0 °F 44.8 °F 26.1 °F 46% 30.11 in - SSW 3.5 mph - N/A   Unknown
4:48 PM 39.9 °F - 26.1 °F 58% 30.11 in - Calm Calm - N/A   Unknown
5:48 PM 36.0 °F 33.3 °F 26.1 °F 67% 30.11 in - NW 3.5 mph - N/A   Unknown
6:48 PM 37.0 °F - 26.1 °F 65% 30.09 in - Calm Calm - N/A   Unknown
7:48 PM 37.0 °F 34.5 °F 27.0 °F 67% 30.06 in - ENE 3.5 mph - N/A   Unknown
8:48 PM 37.9 °F 33.5 °F 27.0 °F 65% 30.04 in - SSW 5.8 mph - N/A   Unknown
9:48 PM 37.0 °F - 27.0 °F 67% 30.00 in - Calm Calm - N/A   Unknown
10:48 PM 36.0 °F - 27.0 °F 70% 29.99 in - Calm Calm - N/A   Unknown
11:48 PM 35.1 °F 32.2 °F 26.1 °F 70% 29.96 in - West 3.5 mph - N/A   Unknown